SL-12 R/B(2), 19754

Orbit data source: Space-Track

SL-12 R/B(2), 19754 is space debris in MEO originally from a launch on Tue, 10 Jan 1989 UTC launched from the Tyuratam Missile And Space Complex (TTMTR). Debris objects in space refer to the collection of defunct objects orbiting the Earth. Examples of debris include non-operational satellites, rocket bodies, and fragments generated from explosions, collisions, or faulty payload assembly.

Loading next visibility...
Identifier
19754, 1989-001F
Orbit
MEO
Country
Flag of CISCIS
Related business
Manufacturer
NPO Energiya
Mission
Spacecraft
Bus & Motor
BLOK DM, Unknown motor
Mass
2,440 kg wet, 2,440 kg dry
Launch date (UTC)
1989-01-10 (37 years ago)
Launch vehicle
Unknown
Launch site
Tyuratam Missile And Space Complex (TTMTR)
Object type
Payload
Rocket body
Debris
Shape & HBR
Cyl, 3.1 m
Radar Cross Section
23.597 m², Large (>1 m²)

Expand to show TLE details & history
Last TLE update: 5 days ago

TLE from 5 days ago
0 SL-12 R/B(2)
1 19754U 89001F   26069.25739034  .00000017  00000-0  00000-0 0  9998
2 19754  64.9092  74.1928 0016160 240.5732 113.7915  2.13421230289583
Epoch: 2026-03-10T06:10Z
TLE epoch observation values (Epoch: 2026-03-10T06:10:38.525Z)
Latitude
-4.98191°
Longitude
171.24908°
Altitude
19,122.434 km
Speed
3.952 km/s
True Right ascension
04h 47m 23s
True Declination
-4° 58' 25"
Sunlit
Object was in daylight at epoch
Visualization orbit readout
Latitude
Unknown
Longitude
Unknown
Altitude
Unknown
Speed
Unknown
Apparent Right ascension
Unknown
Apparent Declination
Unknown
Sunlit
N/A
Visualization observer readout
Local Sidereal Time
16:01:50
Azimuth
Unknown
Elevation
Unknown
Doppler factor
Unknown
Orbital elements
Apogee altitude
19,145.242 km
Perigee altitude
19,062.883 km
Semi-major axis
25,482.2 km
Eccentricity
0.00162
Inclination
64.9092°
RAAN
74.1928°
Arg. of periapsis
240.5732°
True anomaly
113.96081°
Mean anomaly
113.7915°
Eccentric anomaly
113.87617°
Mean motion
0.53357 °/min
Orbital period
674.71 mins
BSTAR
0
Loading maneuver chart data...
Computing Atmospheric mass density...
Loading historical data...
Loading historical data...
Loading historical data...
Loading historical data...
Loading historical data...
Loading historical data...
Loading historical data...

Documentation

Showing up to 5 results
|